Location: Unspecified
(40.9447°N, 78.9903°W)
Time: 03:43:59
(UTC-04:00)

Okean 3 - Pass Details

Date: 30 July 2021
Orbit: 575 x 601 km, 82.5° (Epoch: 26 September)

Event Time Altitude Azimuth Distance (km) Brightness Sun altitude
Rises 01:14:24 0° 5° (N) 2,850 8.1 -30.6°
Reaches altitude 10° 01:17:01 10° 21° (NNE) 1,939 6.9 -30.6°
Enters shadow 01:19:17 20° 50° (NE) 1,378 5.7 -30.6°
